Location: Madrid
(40.4000°N, 3.6830°W)
Time: 00:56:03
(UTC+02:00)

ISS - Pass Details

Date: 14 July 2019
Orbit: 409 x 418 km, 51.6° (Epoch: 23 July)

Event Time Altitude Azimuth Distance (km) Brightness Sun altitude
Exits shadow 03:08:40 - 313° (NW) 1,545 -0.5 -26.9°
Reaches altitude 10° 03:08:57 10° 317° (NW) 1,483 -0.6 -26.8°
Maximum altitude 03:10:43 14° 350° (N) 1,282 -0.5 -26.8°
Drops below altitude 10° 03:12:29 10° 22° (NNE) 1,481 0.0 -26.7°
Sets 03:15:24 0° 50° (NE) 2,342 0.8 -26.6°
